1505426400.74,1606,16.0,73184.3,0.51,-0.23,-0.19,0,*71
1505426401.93,1607,16.0,73176.3,0.53,-0.11,-0.23,0,*7A
1505426403.13,1608,16.0,73196.5,0.53,-0.23,-0.23,0,*74
1505426404.3,1609,15.94,73192.8,0.53,-0.11,-0.19,0,*7D
1505426405.47,1610,16.0,73196.0,0.51,0.01,-0.07,0,*54
1505426406.66,1611,16.0,73200.5,0.51,-0.07,-0.07,0,*7E
1505426407.81,1612,15.94,73192.8,0.53,0.05,-0.07,0,*50
1505426408.95,1613,15.94,73192.0,0.53,0.01,-0.07,0,*55
1505426410.16,1614,16.0,73198.5,0.53,-0.23,-0.23,0,*79
1505426411.32,1615,15.94,73206.5,0.53,-0.11,-0.19,0,*70
1505426412.47,1616,16.0,73204.3,0.53,-0.07,0.01,0,*50
1505426413.64,1617,16.0,73204.3,0.55,0.05,0.05,0,*7C
1505426414.82,1618,16.0,73200.8,0.55,-0.07,-0.03,0,*77
1505426416.0,1619,16.0,73196.3,0.55,-0.07,-0.03,0,*76
1505426417.18,1620,16.0,73196.5,0.55,0.09,-0.03,0,*5F
1505426418.35,1621,15.94,73188.8,0.55,-0.07,-0.03,0,*7D
1505426419.53,1622,16.0,73200.3,0.55,-0.07,-0.07,0,*7A
1505426420.72,1623,16.0,73188.8,0.55,-0.03,-0.07,0,*7F
1505426421.91,1624,16.0,73196.3,0.55,-0.19,-0.19,0,*7C
1505426423.1,1625,16.0,73202.3,0.55,-0.19,-0.19,0,*7D
1505426424.3,1626,16.0,73204.5,0.55,-0.19,-0.19,0,*7E
1505426425.49,1627,16.0,73204.5,0.55,-0.15,-0.15,0,*7F
1505426426.7,1628,15.94,73196.8,0.55,-0.19,-0.23,0,*79
1505426427.92,1629,16.0,73194.8,0.55,-0.19,-0.23,0,*78
1505426429.13,1630,16.0,73194.5,0.55,-0.19,-0.23,0,*70
1505426430.34,1631,15.94,73198.3,0.55,-0.19,-0.23,0,*71
1505426431.55,1632,16.0,73196.5,0.53,-0.23,-0.23,0,*7D
1505426432.77,1633,15.94,73190.8,0.55,-0.19,-0.23,0,*73
1505426433.98,1634,16.0,73192.8,0.55,-0.19,-0.23,0,*74
1505426435.18,1635,15.94,73198.0,0.55,-0.19,-0.15,0,*70
1505426436.38,1636,16.0,73198.0,0.53,-0.23,-0.23,0,*79
1505426437.59,1637,16.0,73198.0,0.53,-0.27,-0.27,0,*78
1505426438.76,1638,15.94,73188.8,0.53,-0.37,-0.33,0,*73
1505426439.92,1639,16.0,73182.5,0.53,-0.37,-0.45,0,*73
1505426441.08,1640,15.94,73178.8,0.53,-0.45,-0.45,0,*78
1505426442.27,1641,16.0,73180.3,0.53,-0.37,-0.27,0,*78
1505426443.51,1642,16.0,73182.3,0.51,-0.27,-0.23,0,*7C
1505426444.71,1643,16.0,73182.8,0.53,-0.23,-0.23,0,*7B
1505426445.92,1644,15.94,73186.5,0.53,-0.23,-0.23,0,*7C
1505426447.09,1645,16.0,73184.5,0.53,-0.37,-0.37,0,*7D
1505426448.28,1646,16.0,73180.5,0.51,-0.45,-0.37,0,*79
1505426449.44,1647,15.94,73178.0,0.53,-0.37,-0.45,0,*7A
1505426450.61,1648,16.0,73176.5,0.53,-0.37,-0.33,0,*74
1505426451.78,1649,15.94,73180.8,0.53,-0.37,-0.37,0,*71
1505426452.98,1650,16.0,73188.0,0.53,-0.27,-0.27,0,*79
1505426454.15,1651,15.94,73184.5,0.53,-0.19,-0.11,0,*70
1505426455.36,1652,16.0,73198.0,0.53,-0.23,-0.23,0,*7B
1505426456.57,1653,15.94,73194.8,0.53,-0.23,-0.23,0,*7A
1505426457.74,1654,15.94,73190.5,0.53,-0.19,-0.19,0,*7D
1505426458.93,1655,15.94,73192.5,0.55,-0.15,-0.15,0,*7A
1505426460.12,1656,15.94,73184.5,0.55,-0.19,-0.19,0,*79
1505426461.32,1657,15.94,73196.0,0.55,-0.19,-0.15,0,*74
1505426462.51,1658,15.94,73196.0,0.53,-0.27,-0.33,0,*74
1505426463.75,1659,15.94,73194.5,0.51,-0.27,-0.27,0,*72
1505426464.96,1660,15.94,73196.8,0.53,-0.27,-0.27,0,*7A
1505426466.16,1661,15.94,73202.0,0.53,-0.27,-0.27,0,*7B
1505426467.35,1662,15.94,73196.3,0.53,-0.27,-0.33,0,*7D
1505426468.54,1663,15.94,73186.5,0.51,-0.45,-0.45,0,*7B
1505426469.74,1664,15.94,73190.5,0.51,-0.49,-0.49,0,*7C
1505426470.92,1665,15.94,73194.3,0.51,-0.61,-0.57,0,*78
1505426472.09,1666,15.94,73194.5,0.53,-0.45,-0.37,0,*79
1505426473.33,1667,15.94,73188.0,0.51,-0.27,-0.27,0,*7F
1505426474.56,1668,15.94,73184.5,0.51,-0.27,-0.23,0,*74
1505426475.78,1669,15.94,73190.0,0.51,-0.23,-0.19,0,*78
1505426476.95,1670,15.94,73190.3,0.53,-0.19,-0.19,0,*7B
1505426478.14,1671,15.94,73190.3,0.51,-0.07,-0.19,0,*47
1505426479.29,1672,15.94,73190.3,0.53,-0.07,-0.07,0,*79
1505426480.44,1673,15.94,73182.5,0.53,-0.07,-0.07,0,*78
1505426481.58,1674,15.94,73182.5,0.53,0.01,-0.07,0,*54
1505426482.74,1675,15.94,73170.8,0.53,-0.07,-0.07,0,*7E
1505426483.91,1676,15.94,73166.0,0.53,-0.11,-0.11,0,*7D
1505426485.07,1677,15.94,73156.8,0.53,-0.11,-0.07,0,*4B
1505426486.22,1678,15.94,73158.8,0.53,-0.07,-0.07,0,*73
1505426487.36,1679,15.94,73168.3,0.53,-0.07,0.01,0,*59
1505426488.51,1680,15.94,73174.0,0.53,0.05,0.05,0,*74
1505426489.71,1681,15.94,73166.5,0.57,0.17,0.21,0,*74
1505426490.85,1682,15.94,73174.8,0.57,0.05,0.05,0,*72
1505426492.03,1683,15.94,73170.5,0.55,-0.07,-0.07,0,*71
1505426493.22,1684,15.94,73180.8,0.55,-0.19,-0.07,0,*49
1505426494.4,1685,15.94,73182.3,0.55,-0.15,-0.03,0,*40
1505426495.56,1686,16.0,73184.3,0.57,-0.15,-0.03,0,*41
1505426496.72,1687,15.94,73178.3,0.57,-0.15,-0.07,0,*44
1505426497.89,1688,15.94,73180.5,0.57,-0.19,-0.15,0,*74
1505426499.08,1689,15.94,73182.5,0.55,-0.19,-0.15,0,*77
1505426500.27,1690,15.94,73184.3,0.55,-0.19,-0.19,0,*73
1505426501.47,1691,15.94,73190.8,0.55,-0.19,-0.19,0,*72
1505426502.63,1692,15.94,73188.0,0.57,-0.15,-0.15,0,*73
1505426503.8,1693,15.94,73184.0,0.57,-0.19,-0.19,0,*72
1505426504.96,1694,15.94,73182.3,0.57,-0.15,-0.19,0,*79
1505426506.14,1695,15.94,73178.8,0.57,-0.23,-0.29,0,*7E
1505426507.33,1696,15.94,73180.0,0.57,-0.23,-0.29,0,*7D
1505426508.51,1697,15.94,73178.0,0.55,-0.29,-0.29,0,*74
1505426509.7,1698,15.94,73146.8,0.55,-0.45,-0.45,0,*7B
1505426510.88,1699,15.94,73146.3,0.55,-0.45,-0.45,0,*7A
1505426512.07,1700,15.94,73148.0,0.55,-0.45,-0.53,0,*7C
1505426513.24,1701,15.94,73156.5,0.53,-0.45,-0.37,0,*79
1505426514.42,1702,15.94,73156.5,0.51,-0.49,-0.45,0,*71
1505426515.59,1703,15.94,73150.0,0.53,-0.49,-0.49,0,*7E
1505426516.75,1704,15.94,73168.5,0.53,-0.33,-0.37,0,*7D
1505426517.96,1705,15.94,73156.5,0.53,-0.23,-0.23,0,*78
1505426519.15,1706,15.94,73170.5,0.55,-0.19,-0.19,0,*7D
1505426520.36,1707,15.94,73170.5,0.53,-0.23,-0.23,0,*7A
1505426521.57,1708,15.94,73164.0,0.53,-0.23,-0.23,0,*75
1505426522.78,1709,15.94,73166.3,0.53,-0.23,-0.27,0,*70
1505426523.99,1710,15.94,73170.8,0.53,-0.27,-0.27,0,*7C
1505426525.19,1711,15.94,73172.8,0.53,-0.27,-0.27,0,*7D
1505426526.4,1712,15.94,73174.3,0.53,-0.23,-0.23,0,*7E
1505426527.61,1713,15.94,73176.0,0.53,-0.23,-0.23,0,*7F
1505426528.82,1714,15.94,73172.5,0.53,-0.27,-0.27,0,*78
1505426530.04,1715,15.94,73168.0,0.55,-0.23,-0.15,0,*7A
1505426531.23,1716,15.94,73168.3,0.55,-0.19,-0.19,0,*7C
1505426532.41,1717,15.94,73176.0,0.53,-0.33,-0.27,0,*7E
1505426533.62,1718,15.94,73178.0,0.53,-0.27,-0.27,0,*74
1505426534.78,1719,15.94,73176.0,0.53,-0.33,-0.33,0,*75
1505426535.94,1720,15.94,73180.3,0.53,-0.37,-0.45,0,*7A
1505426537.13,1721,15.94,73178.3,0.55,-0.53,-0.53,0,*78
1505426538.3,1722,15.94,73176.5,0.53,-0.69,-0.57,0,*70
1505426539.46,1723,15.94,73188.0,0.53,-0.37,-0.45,0,*79
1505426540.62,1724,15.94,73180.5,0.53,-0.33,-0.37,0,*7F
1505426541.83,1725,15.94,73176.5,0.53,-0.27,-0.27,0,*7A
1505426543.07,1726,15.94,73184.5,0.51,-0.27,-0.27,0,*7B
1505426544.23,1727,15.94,73180.8,0.53,-0.37,-0.45,0,*7D
1505426545.39,1728,15.94,73160.0,0.53,-0.45,-0.45,0,*77
1505426546.55,1729,15.94,73186.3,0.53,-0.49,-0.49,0,*76
1505426547.74,1730,15.94,73162.3,0.51,-0.57,-0.61,0,*79
1505426548.9,1731,15.94,73138.8,0.53,-0.61,-0.69,0,*77
1505426550.08,1732,15.94,73136.3,0.51,-0.61,-0.61,0,*7E
1505426551.27,1733,15.94,73152.0,0.51,-0.57,-0.49,0,*70
1505426552.46,1734,15.94,73162.5,0.51,-0.33,-0.33,0,*78
1505426553.66,1735,15.94,73160.0,0.51,-0.11,-0.19,0,*71
1505426554.86,1736,15.94,73148.5,0.51,-0.19,-0.11,0,*72
1505426556.03,1737,15.94,73124.3,0.53,-0.19,-0.19,0,*79
1505426557.17,1738,15.94,73126.5,0.53,0.05,0.05,0,*76
1505426558.37,1739,15.94,73130.5,0.53,0.37,0.37,0,*77
1505426559.56,1740,16.0,73132.8,0.53,0.29,0.37,0,*76
1505426560.75,1741,15.94,73134.3,0.53,0.13,0.17,0,*7C
1505426561.95,1742,15.94,73136.0,0.53,0.17,0.29,0,*76
1505426563.16,1743,15.94,73142.0,0.55,0.29,0.33,0,*77
1505426564.35,1744,15.94,73152.5,0.57,0.33,0.41,0,*7C
1505426565.55,1745,15.94,73152.8,0.57,0.21,0.29,0,*70
1505426566.74,1746,15.94,73156.0,0.55,0.09,0.17,0,*46
1505426567.89,1747,15.94,73150.3,0.57,0.09,0.09,0,*7A
1505426569.11,1748,15.94,73166.0,0.59,0.21,0.13,0,*7A
1505426570.3,1749,15.94,73150.3,0.57,0.17,0.21,0,*71
1505426571.53,1750,15.94,73166.8,0.59,0.21,0.21,0,*72
1505426572.75,1751,15.94,73156.5,0.59,0.21,0.25,0,*77
1505426573.98,1752,15.94,73150.0,0.59,0.21,0.21,0,*70
1505426575.17,1753,15.94,73156.0,0.59,0.13,0.09,0,*4A
1505426576.34,1754,15.94,73148.8,0.59,0.09,0.01,0,*7E
1505426577.53,1755,15.94,73156.3,0.59,-0.15,-0.11,0,*73
1505426578.72,1756,15.94,73168.0,0.59,-0.03,-0.11,0,*47
1505426579.89,1757,15.94,73160.0,0.59,0.01,0.01,0,*75
1505426581.05,1758,15.94,73166.8,0.59,0.01,0.01,0,*7A
1505426582.22,1759,15.94,73174.0,0.59,0.09,0.09,0,*7B
1505426583.41,1760,15.94,73172.5,0.61,0.17,0.17,0,*7A
1505426584.61,1761,15.94,73172.8,0.61,0.13,0.25,0,*7E
1505426585.81,1762,15.94,73176.3,0.59,0.09,0.21,0,*49
1505426587.0,1763,15.94,73176.0,0.61,0.13,0.17,0,*7D
1505426588.19,1764,15.94,73174.3,0.61,0.13,0.13,0,*7E
1505426589.39,1765,15.94,73174.5,0.59,0.09,0.13,0,*4F
1505426590.58,1766,15.94,73184.5,0.59,0.09,0.13,0,*4C
1505426591.77,1767,15.94,73186.5,0.61,0.17,0.13,0,*79
1505426592.99,1768,15.94,73182.8,0.63,0.17,0.13,0,*74
1505426594.18,1769,15.94,73184.3,0.61,0.17,0.13,0,*77
1505426595.35,1770,15.94,73174.5,0.61,0.13,0.01,0,*48
1505426596.54,1771,15.94,73166.8,0.63,-0.11,-0.07,0,*4F
1505426597.7,1772,15.94,73160.0,0.61,-0.07,-0.11,0,*4E
1505426598.88,1773,15.94,73170.3,0.61,-0.11,-0.11,0,*78
1505426600.04,1774,15.94,73174.8,0.61,-0.11,-0.07,0,*48
1505426601.19,1775,15.94,73172.8,0.61,-0.07,0.01,0,*55
1505426602.33,1776,15.94,73174.5,0.61,0.01,0.01,0,*7D
1505426603.48,1777,15.94,73178.5,0.61,0.05,0.05,0,*7C
1505426604.65,1778,15.94,73178.3,0.61,0.05,0.13,0,*44
1505426605.81,1779,15.94,73168.0,0.61,0.01,0.17,0,*45
1505426607.03,1780,15.94,73168.8,0.63,0.13,0.13,0,*76
1505426608.22,1781,15.94,73168.8,0.61,0.13,0.13,0,*75
1505426609.4,1782,15.94,73164.8,0.61,-0.11,-0.11,0,*76
1505426610.59,1783,15.94,73162.5,0.63,-0.15,-0.15,0,*75
1505426611.76,1784,15.94,73178.0,0.61,-0.15,-0.15,0,*70
1505426612.92,1785,15.94,73170.0,0.61,-0.33,-0.33,0,*71
1505426614.09,1786,15.94,73162.0,0.61,-0.45,-0.45,0,*72
1505426615.28,1787,15.94,73170.0,0.61,-0.27,-0.37,0,*72
1505426616.47,1788,15.94,73178.8,0.59,-0.19,-0.19,0,*77
1505426617.66,1789,15.94,73182.0,0.59,-0.15,-0.15,0,*76
1505426618.86,1790,15.94,73186.0,0.59,-0.15,-0.15,0,*7E
1505426620.02,1791,15.94,73178.0,0.61,-0.15,-0.11,0,*70
1505426621.21,1792,15.94,73192.8,0.61,-0.15,-0.23,0,*72
1505426622.38,1793,15.94,73194.8,0.61,-0.15,-0.15,0,*76
1505426623.59,1794,15.94,73188.8,0.59,-0.29,-0.27,0,*74
1505426624.8,1795,15.94,73188.3,0.61,-0.23,-0.23,0,*70
1505426625.98,1796,15.94,73184.3,0.59,-0.37,-0.29,0,*77
1505426627.17,1797,15.94,73182.8,0.59,-0.29,-0.29,0,*79
1505426628.38,1798,15.94,73182.5,0.59,-0.27,-0.19,0,*7B
1505426629.57,1799,15.94,73182.3,0.59,-0.19,-0.15,0,*7B
1505426630.77,1800,15.94,73180.8,0.59,-0.11,-0.11,0,*78
1505426631.96,1801,15.94,73186.0,0.59,-0.11,-0.03,0,*4A
1505426633.12,1802,15.94,73176.5,0.59,0.01,0.01,0,*7A
1505426634.29,1803,15.94,73176.3,0.59,0.09,0.01,0,*73
1505426635.48,1804,15.94,73178.3,0.59,0.13,0.09,0,*47
1505426636.68,1805,15.94,73180.8,0.61,0.17,0.17,0,*76
1505426637.87,1806,15.94,73184.5,0.61,0.25,0.25,0,*75
1505426639.06,1807,15.94,73184.0,0.61,0.17,0.25,0,*75
1505426640.28,1808,15.94,73172.5,0.63,0.13,0.17,0,*7D
1505426641.5,1809,15.94,73178.3,0.63,0.17,0.13,0,*7C
1505426642.67,1810,15.94,73162.8,0.61,0.05,0.13,0,*45
1505426643.89,1811,15.94,73158.5,0.63,0.17,0.13,0,*75
1505426645.05,1812,15.94,73156.8,0.65,0.09,0.17,0,*4B
1505426646.22,1813,15.94,73154.8,0.63,0.01,0.01,0,*73
1505426647.39,1814,15.94,73146.8,0.61,-0.11,-0.11,0,*76
1505426648.56,1815,15.94,73144.8,0.63,-0.07,0.01,0,*5E
1505426649.71,1816,15.94,73148.5,0.65,0.09,0.05,0,*7C
1505426650.86,1817,15.94,73148.0,0.65,0.05,0.05,0,*71
1505426652.02,1818,15.94,73140.3,0.63,0.01,0.05,0,*7C
1505426653.19,1819,15.94,73132.3,0.63,0.01,-0.07,0,*52
1505426654.34,1820,15.94,73134.8,0.65,0.05,0.05,0,*75
1505426655.48,1821,15.94,73140.3,0.65,0.01,0.01,0,*74
1505426656.65,1822,15.94,73144.3,0.63,-0.07,-0.07,0,*71
1505426657.82,1823,15.94,73150.5,0.63,0.01,0.05,0,*74
1505426659.0,1824,15.94,73150.3,0.63,0.05,0.05,0,*77
1505426660.16,1825,15.94,73154.5,0.63,0.01,0.05,0,*72
1505426661.34,1826,15.94,73168.8,0.63,0.05,0.05,0,*75
1505426662.53,1827,15.94,73174.5,0.63,0.05,0.17,0,*47
1505426663.75,1828,15.94,73174.5,0.63,0.17,0.17,0,*7B
1505426664.92,1829,15.94,73178.3,0.63,0.05,0.05,0,*7A
1505426666.07,1830,15.94,73188.3,0.65,0.09,0.09,0,*74
1505426667.28,1831,15.94,73194.3,0.63,0.13,0.17,0,*77
1505426668.47,1832,15.94,73198.5,0.65,0.17,0.17,0,*76
1505426669.66,1833,15.94,73194.0,0.65,0.17,0.17,0,*77
1505426670.84,1834,15.94,73192.0,0.63,-0.07,0.01,0,*5D
1505426671.98,1835,15.94,73184.0,0.65,0.05,0.09,0,*7D
1505426673.17,1836,15.94,73186.8,0.65,0.17,0.17,0,*72
1505426674.39,1837,15.94,73186.8,0.63,0.13,0.17,0,*71
1505426675.58,1838,15.94,73176.0,0.65,0.17,0.17,0,*7C
1505426676.78,1839,15.94,73166.5,0.69,0.21,0.21,0,*71
1505426677.95,1840,15.94,73160.8,0.63,0.01,0.05,0,*71
1505426679.09,1841,15.94,73160.3,0.65,0.05,0.09,0,*7E
1505426680.24,1842,15.94,73160.5,0.65,0.05,0.05,0,*71
1505426681.43,1843,15.94,73156.8,0.65,0.17,0.21,0,*75
1505426682.62,1844,15.94,73160.3,0.65,0.17,0.33,0,*71
1505426683.85,1845,15.94,73160.0,0.67,0.17,0.21,0,*71
1505426685.04,1846,15.94,73160.3,0.65,0.17,0.17,0,*75
1505426686.18,1847,15.94,73156.3,0.65,0.05,0.05,0,*74
1505426687.38,1848,15.94,73164.0,0.67,0.09,0.17,0,*46
1505426688.55,1849,15.94,73166.8,0.65,0.09,0.17,0,*45
1505426689.7,1850,15.94,73156.5,0.65,-0.03,0.05,0,*59
1505426690.85,1851,15.94,73160.3,0.65,-0.07,-0.07,0,*73
1505426692.0,1852,15.94,73176.0,0.65,-0.07,-0.07,0,*70
1505426693.16,1853,15.94,73176.8,0.65,-0.03,-0.07,0,*75
1505426694.36,1854,15.94,73182.8,0.63,-0.11,-0.11,0,*70
1505426695.52,1855,15.94,73176.3,0.65,-0.15,-0.15,0,*77
1505426696.69,1856,15.94,73182.8,0.63,0.01,0.01,0,*72
1505426697.83,1857,15.94,73174.5,0.65,0.05,0.05,0,*75
1505426698.99,1858,15.94,73158.5,0.65,-0.11,-0.07,0,*4D
1505426700.15,1859,15.94,73160.5,0.65,-0.33,-0.29,0,*70
1505426701.38,1860,15.94,73156.8,0.63,-0.27,-0.27,0,*77
1505426702.55,1861,15.94,73162.5,0.65,-0.11,-0.11,0,*70
1505426703.72,1862,15.94,73172.3,0.65,-0.03,-0.11,0,*40
1505426704.87,1863,15.94,73162.8,0.65,-0.07,-0.03,0,*76
1505426706.02,1864,15.94,73166.8,0.65,0.05,-0.07,0,*5A
1505426707.17,1865,15.94,73182.5,0.65,-0.07,-0.07,0,*74
1505426708.32,1866,15.94,73194.0,0.65,-0.03,-0.03,0,*77
1505426709.48,1867,15.94,73194.5,0.65,-0.03,-0.07,0,*72
1505426710.65,1868,15.94,73168.8,0.65,-0.45,-0.41,0,*7D
1505426711.85,1869,15.94,73160.3,0.63,-1.21,-1.21,0,*7E
1505426713.05,1870,15.94,73160.3,0.63,-1.33,-1.25,0,*71
1505426714.24,1871,15.94,73166.0,0.59,-1.59,-1.59,0,*7E
1505426715.48,1872,15.94,73142.3,0.59,-1.35,-1.39,0,*71
1505426716.68,1873,15.94,73138.3,0.59,-1.59,-1.63,0,*75
1505426717.88,1874,15.94,73150.8,0.55,-1.75,-1.67,0,*74
1505426719.1,1875,15.94,73150.3,0.55,-1.09,-1.21,0,*7C
1505426720.29,1876,15.94,73144.8,0.53,-0.85,-0.73,0,*7A
1505426721.45,1877,15.94,73156.8,0.53,-0.49,-0.45,0,*7E
1505426722.61,1878,15.94,73166.5,0.53,-0.33,-0.37,0,*79
1505426723.82,1879,15.94,73174.5,0.53,-0.27,-0.27,0,*7C
1505426725.03,1880,15.94,73178.0,0.53,-0.27,-0.27,0,*7A
1505426726.22,1881,15.94,73162.5,0.55,-0.29,-0.19,0,*7E
1505426727.41,1882,15.94,73164.3,0.55,-0.45,-0.41,0,*7A
1505426728.65,1883,15.94,73162.5,0.55,-0.89,-0.89,0,*7F
1505426729.88,1884,15.94,73154.5,0.55,-0.89,-0.89,0,*78
1505426731.08,1885,15.94,73128.5,0.53,-1.33,-1.35,0,*79
1505426732.28,1886,15.94,73140.3,0.51,-1.25,-1.25,0,*7E
1505426733.52,1887,15.94,73158.3,0.51,-0.85,-0.85,0,*7F
1505426734.71,1888,15.94,73154.8,0.51,-0.73,-0.73,0,*70
1505426735.91,1889,15.94,73168.3,0.51,-0.57,-0.57,0,*71
1505426737.1,1890,15.94,73168.5,0.51,-0.57,-0.49,0,*76
1505426738.29,1891,15.94,73178.3,0.51,-0.57,-0.61,0,*7D
1505426739.48,1892,15.94,73182.3,0.51,-0.57,-0.61,0,*7E
1505426740.67,1893,15.94,73176.3,0.51,-0.37,-0.45,0,*7F
1505426741.91,1894,15.94,73176.5,0.51,-0.27,-0.27,0,*7D
1505426743.1,1895,15.94,73178.5,0.51,-0.11,-0.19,0,*74
1505426744.3,1896,15.94,73168.5,0.53,0.17,0.13,0,*79
1505426745.46,1897,15.94,73164.5,0.53,0.13,0.05,0,*4B
1505426746.63,1898,15.94,73168.8,0.53,0.13,0.05,0,*44
1505426747.85,1899,15.94,73170.0,0.55,0.17,0.17,0,*74
1505426749.04,1900,15.94,73172.3,0.55,0.09,0.17,0,*4A
1505426750.25,1901,15.94,73174.8,0.55,0.05,0.21,0,*42
1505426751.41,1902,15.94,73180.3,0.57,0.09,0.17,0,*4A
1505426752.58,1903,15.94,73188.5,0.57,0.09,0.17,0,*4B
1505426753.76,1904,15.94,73180.0,0.55,-0.03,0.05,0,*5A
1505426754.91,1905,15.94,73186.0,0.57,-0.07,-0.07,0,*72
1505426756.1,1906,15.94,73190.5,0.55,-0.07,-0.15,0,*40
1505426757.28,1907,15.94,73192.3,0.55,-0.07,-0.15,0,*41
1505426758.43,1908,15.94,73182.3,0.57,-0.07,-0.03,0,*7B
1505426759.59,1909,15.94,73176.5,0.57,-0.07,-0.03,0,*7A
1505426760.77,1910,15.94,73172.3,0.55,-0.07,-0.03,0,*70
1505426761.91,1911,15.94,73166.8,0.57,0.05,-0.03,0,*5C
1505426763.1,1912,15.94,73168.5,0.55,-0.03,-0.07,0,*72
1505426764.26,1913,15.94,73168.8,0.57,-0.15,-0.15,0,*75
1505426765.47,1914,15.94,73168.5,0.57,-0.23,-0.23,0,*72
1505426766.66,1915,15.94,73184.0,0.57,-0.23,-0.19,0,*7A
1505426767.82,1916,15.94,73180.0,0.57,-0.19,-0.19,0,*70
1505426769.01,1917,15.94,73176.8,0.57,-0.23,-0.19,0,*78
1505426770.2,1918,15.94,73172.0,0.57,-0.23,-0.19,0,*77
1505426771.38,1919,15.94,73168.5,0.57,-0.23,-0.19,0,*76
1505426772.6,1920,15.94,73166.5,0.55,-0.19,-0.23,0,*7E
1505426773.79,1921,15.94,73166.8,0.57,-0.19,-0.23,0,*7D
1505426774.97,1922,15.94,73168.5,0.55,-0.45,-0.45,0,*75
1505426776.14,1923,15.94,73164.3,0.57,-0.81,-0.81,0,*76
1505426777.3,1924,15.94,73166.5,0.57,-0.57,-0.65,0,*70
1505426778.48,1925,15.94,73166.8,0.55,-0.45,-0.45,0,*72
1505426779.72,1926,15.94,73170.8,0.55,-0.89,-0.89,0,*71
1505426780.95,1927,15.94,73174.3,0.55,-0.93,-0.93,0,*70
1505426782.2,1928,15.94,73170.3,0.55,-1.09,-1.05,0,*73
1505426783.45,1929,15.94,73166.8,0.51,-1.35,-1.43,0,*7B
1505426784.62,1930,15.94,73168.5,0.53,-1.67,-1.71,0,*77
1505426785.85,1931,15.94,73166.8,0.51,-1.43,-1.55,0,*74
1505426787.1,1932,15.94,73160.3,0.47,-1.35,-1.35,0,*77
1505426788.36,1933,15.94,73164.0,0.47,-1.39,-1.47,0,*7F
1505426789.59,1934,15.94,73164.3,0.45,-1.47,-1.47,0,*73
1505426790.81,1935,15.94,73170.0,0.45,-1.13,-1.13,0,*72
1505426792.02,1936,15.94,73164.3,0.43,-0.93,-1.01,0,*4D
1505426793.19,1937,15.94,73168.3,0.43,-0.77,-0.77,0,*76
1505426794.42,1938,15.88,73168.3,0.41,-0.89,-0.89,0,*7B
1505426795.63,1939,15.94,73168.0,0.43,-0.93,-0.93,0,*78
1505426796.84,1940,15.94,73172.0,0.43,-0.89,-0.89,0,*76
1505426798.0,1941,15.94,73178.0,0.43,-0.81,-0.81,0,*77
1505426799.19,1942,15.94,73170.8,0.41,-0.77,-0.81,0,*7F
1505426800.36,1943,15.94,73170.8,0.43,-0.81,-0.81,0,*75
1505426801.6,1944,15.94,73180.5,0.41,-0.89,-1.01,0,*41
1505426802.82,1945,15.94,73176.8,0.41,-0.93,-0.93,0,*71
1505426804.03,1946,15.88,73170.0,0.43,-0.89,-0.93,0,*7B
1505426805.26,1947,15.94,73176.8,0.41,-0.93,-0.93,0,*73
1505426806.51,1948,15.94,73166.8,0.41,-1.05,-1.01,0,*78
1505426807.76,1949,15.94,73158.8,0.41,-1.39,-1.39,0,*7D
1505426809.01,1950,15.94,73154.5,0.37,-1.13,-1.13,0,*74
1505426810.18,1951,15.94,73146.8,0.39,-1.21,-1.25,0,*7F
1505426811.43,1952,15.94,73176.0,0.37,-1.13,-1.13,0,*76
1505426812.61,1953,15.94,73164.5,0.39,-1.17,-1.21,0,*7C
1505426813.79,1954,15.94,73178.0,0.35,-1.25,-1.29,0,*7E
1505426814.99,1955,15.94,73166.3,0.37,-1.29,-1.25,0,*7D
1505426816.21,1956,15.94,73154.0,0.35,-1.13,-1.13,0,*70
1505426817.44,1957,15.94,73162.0,0.35,-1.01,-1.01,0,*71
1505426818.69,1958,15.94,73168.3,0.33,-1.05,-1.13,0,*7F
1505426819.88,1959,15.94,73172.8,0.35,-0.77,-0.89,0,*7E
1505426821.09,1960,15.94,73174.5,0.35,-0.85,-0.85,0,*75
1505426822.28,1961,15.94,73164.5,0.35,-0.77,-0.85,0,*79
1505426823.51,1962,15.94,73166.3,0.35,-1.01,-1.01,0,*77
1505426824.73,1963,15.94,73170.3,0.35,-1.01,-0.97,0,*48
1505426825.96,1964,15.94,73154.0,0.35,-1.01,-1.09,0,*79
1505426827.19,1965,15.94,73170.0,0.35,-1.01,-1.01,0,*70
1505426828.41,1966,15.94,73166.0,0.35,-0.97,-0.97,0,*73
1505426829.63,1967,15.94,73170.5,0.33,-1.33,-1.39,0,*7E
1505426830.85,1968,15.94,73168.5,0.33,-1.51,-1.43,0,*78
1505426832.06,1969,15.94,73172.5,0.33,-1.17,-1.25,0,*7B
1505426833.25,1970,15.94,73168.5,0.31,-1.51,-1.43,0,*73
1505426834.43,1971,15.94,73154.0,0.31,-1.63,-1.67,0,*75
1505426835.6,1972,15.94,73140.8,0.31,-1.51,-1.55,0,*76
1505426836.86,1973,15.88,73164.8,0.29,-1.43,-1.47,0,*7E
1505426838.06,1974,15.88,73156.0,0.31,-1.13,-1.17,0,*70
1505426839.27,1975,15.94,73178.5,0.29,-1.17,-1.21,0,*79
1505426840.52,1976,15.94,73160.5,0.29,-0.97,-1.05,0,*45
1505426841.72,1977,15.94,73156.3,0.29,-0.81,-0.81,0,*7E
1505426842.95,1978,15.94,73168.0,0.29,-1.17,-1.09,0,*7E
1505426844.18,1979,15.94,73168.5,0.29,-1.17,-1.09,0,*7F
1505426845.39,1980,15.88,73156.3,0.29,-1.29,-1.21,0,*7E
1505426846.63,1981,15.94,73168.3,0.29,-0.97,-0.97,0,*77
1505426847.83,1982,15.88,73176.8,0.29,-0.73,-0.81,0,*79
1505426849.03,1983,15.88,73178.5,0.29,-0.81,-0.73,0,*78
1505426850.26,1984,15.94,73174.0,0.29,-0.93,-0.85,0,*75
1505426851.44,1985,15.94,73162.5,0.31,-1.21,-1.29,0,*72
1505426852.65,1986,15.94,73154.3,0.29,-1.21,-1.21,0,*70
1505426853.88,1987,15.88,73156.5,0.27,-1.43,-1.47,0,*7B
1505426855.07,1988,15.94,73176.8,0.27,-1.21,-1.21,0,*70
1505426856.3,1989,15.88,73168.0,0.27,-1.05,-1.05,0,*71
1505426857.52,1990,15.94,73166.8,0.27,-0.97,-0.97,0,*79
1505426858.69,1991,15.88,73156.8,0.27,-0.57,-0.69,0,*75
1505426859.86,1992,15.88,73152.8,0.27,-0.49,-0.49,0,*7B
1505426861.06,1993,15.88,73156.8,0.29,-0.45,-0.41,0,*70
1505426862.26,1994,15.94,73158.3,0.29,-0.41,-0.33,0,*76
1505426863.43,1995,15.88,73160.8,0.31,-0.37,-0.37,0,*7B
1505426864.61,1996,15.94,73154.5,0.31,-0.41,-0.41,0,*78
1505426865.78,1997,15.94,73160.0,0.31,-0.53,-0.41,0,*7A
1505426866.95,1998,15.88,73166.8,0.31,-0.45,-0.45,0,*76
1505426868.17,1999,15.88,73166.5,0.33,-0.27,-0.19,0,*78
1505426869.36,2000,15.88,73170.0,0.33,-0.15,-0.19,0,*73
1505426870.52,2001,15.94,73166.3,0.35,-0.03,0.09,0,*5F
1505426871.68,2002,15.94,73158.5,0.35,-0.03,-0.03,0,*7B
1505426872.86,2003,15.94,73164.0,0.35,-0.15,-0.11,0,*7E
1505426874.03,2004,15.94,73172.3,0.35,-0.15,-0.11,0,*79
1505426875.21,2005,15.88,73172.3,0.35,-0.41,-0.37,0,*7D
1505426876.38,2006,15.94,73166.8,0.35,-0.73,-0.73,0,*7F
1505426877.61,2007,15.94,73150.0,0.35,-1.01,-1.09,0,*76
1505426878.81,2008,15.88,73134.0,0.33,-1.25,-1.25,0,*77
1505426879.99,2009,15.94,73140.3,0.35,-1.29,-1.29,0,*70
1505426881.19,2010,15.94,73146.0,0.33,-1.29,-1.29,0,*7E
1505426882.39,2011,15.88,73156.8,0.33,-1.17,-1.17,0,*7F
1505426883.58,2012,15.88,73154.5,0.35,-0.77,-0.85,0,*77
1505426884.77,2013,15.88,73142.8,0.33,-0.65,-0.57,0,*7C
1505426885.95,2014,15.94,73152.3,0.35,-0.41,-0.41,0,*7C
1505426887.14,2015,15.88,73172.8,0.33,-0.45,-0.45,0,*7B
1505426888.33,2016,15.94,73174.5,0.33,-0.69,-0.69,0,*78
1505426889.51,2017,15.88,73154.0,0.35,-0.77,-0.77,0,*7F
1505426890.67,2018,15.94,73174.8,0.35,-0.61,-0.61,0,*70
1505426891.86,2019,15.88,73168.5,0.33,-0.53,-0.45,0,*70
1505426893.05,2020,15.88,73152.0,0.33,-0.45,-0.53,0,*7A
1505426894.28,2021,15.94,73168.0,0.33,-0.93,-0.89,0,*77
1505426895.51,2022,15.94,73160.0,0.35,-1.13,-1.09,0,*72
1505426896.73,2023,15.88,73176.8,0.35,-1.13,-1.13,0,*78
1505426897.96,2024,15.88,73178.8,0.31,-1.01,-1.05,0,*7F
1505426899.13,2025,15.94,73176.0,0.31,-0.81,-0.77,0,*73
1505426900.32,2026,15.94,73176.3,0.33,-0.77,-0.77,0,*7B
1505426901.56,2027,15.94,73174.0,0.33,-0.89,-0.89,0,*7A
1505426902.81,2028,15.88,73156.0,0.33,-1.01,-1.01,0,*75
1505426904.06,2029,15.88,73160.5,0.33,-1.05,-1.01,0,*70
1505426905.31,2030,15.88,73166.8,0.33,-1.05,-1.01,0,*78
1505426906.55,2031,15.88,73170.3,0.33,-0.89,-0.89,0,*7D
1505426907.74,2032,15.88,73160.3,0.33,-0.69,-0.69,0,*7E
1505426908.93,2033,15.88,73166.3,0.33,-0.57,-0.57,0,*7F
1505426910.1,2034,15.88,73162.0,0.35,-0.53,-0.53,0,*7E
1505426911.29,2035,15.88,73164.8,0.33,-0.65,-0.57,0,*78
1505426912.46,2036,15.88,73158.5,0.35,-0.53,-0.53,0,*7C
1505426913.62,2037,15.88,73142.8,0.35,-0.61,-0.65,0,*79
1505426914.78,2038,15.88,73168.3,0.35,-0.61,-0.61,0,*72